Regional Weather Roundup
Issued by NWS

Home | Current Version | Previous Version | Graphics & Text | Print | Product List | Glossary On
Versions: 1 2 3 4 5 6 7 8 9 10 11 12 13 14 15 16 17 18 19 20 21 22 23 24 25 26 27 28 29 30 31 32 33 34 35 36 37 38 39 40 41 42 43 44 45 46 47 48 49 50
000
ASUS43 KLMK 201102
RWRKY
KENTUCKY REGIONAL WEATHER ROUNDUP
NATIONAL WEATHER SERVICE LOUISVILLE KY
600 AM EST TUE FEB 20 2018

NOTE "FAIR" INDICATES FEW OR NO CLOUDS BELOW 12,000 FEET
WITH NO SIGNIFICANT WEATHER AND/OR OBSTRUCTIONS TO VISIBILITY.

KYZ001>023-026-027-061>063-070>075-201200-
WESTERN AND SOUTH CENTRAL KENTUCKY

CITY           SKY/WX    TMP DP  RH WIND       PRES   REMARKS
PADUCAH        CLOUDY    69  59  70 S13G22    30.04R
HENDERSON      FAIR      67  59  75 S16       30.07R
OWENSBORO      FAIR      65  59  81 S14       30.09R
HOPKINSVILLE   FAIR      67  56  67 S15G24    30.12R
BOWLING GREEN  FAIR      66  58  75 S15       30.16R
GLASGOW        NOT AVBL
$$

KYZ024-025-028>034-038-045-046-053-201200-
NORTH CENTRAL KENTUCKY

CITY           SKY/WX    TMP DP  RH WIND       PRES   REMARKS
LOUISVILLE/SDF MOCLDY    68  57  68 S13G22    30.12R
LOUISVILLE/LOU MOCLDY    66  58  75 S12       30.13R
FORT KNOX      FAIR      64  56  75 S15G22    30.14R
$$

KYZ035>037-039>044-047>052-055>060-089>105-201200-
NORTHEAST KENTUCKY

CITY           SKY/WX    TMP DP  RH WIND       PRES   REMARKS
LEXINGTON      FAIR      64  55  72 S16       30.18R
COVINGTON      FAIR      60  57  89 S10       30.11R
FRANKFORT      FAIR      66  55  67 S17G23    30.15R
$$

KYZ054-064>069-076>088-106>120-201200-
SOUTHEAST KENTUCKY

CITY           SKY/WX    TMP DP  RH WIND       PRES   REMARKS
JACKSON        FAIR      63  53  70 VRB7G17   30.24R
LONDON         FAIR      61  54  77 S5        30.26R
SOMERSET       NOT AVBL
MIDDLESBORO    CLOUDY    60  56  87 S8        30.30R
MONTICELLO     NOT AVBL
$$





USA.gov is the U.S. government's official web portal to all federal, state and local government web resources and services.